,,,PA_Meas_PMT16A,,PR_Meas_QMR101_102,,RH_Meas_QMH101,,SR_Meas_QMS101,,TA_Meas_QMH101,,GenWind,,GenWind,
date,time,status,PA,status,PR,status,RH,status,SR,status,TA,status,DirAvg,status,SpdAvg,
2008-09-17, 00:00:04,VALID,1005.48,VALID,0,VALID,95.8035,VALID,0,VALID,22.6526,VALID,10,VALID,0.246484,
2008-09-17, 00:01:04,VALID,1005.47,VALID,0,VALID,95.8111,VALID,0,VALID,22.6526,VALID,10,VALID,0.332422,
2008-09-17, 00:02:04,VALID,1005.45,VALID,0,VALID,95.8264,VALID,0,VALID,22.6721,VALID,10,VALID,0.26875,
2008-09-17, 00:03:04,VALID,1005.42,VALID,0,VALID,95.8721,VALID,0,VALID,22.6915,VALID,10,VALID,0.344531,
2008-09-17, 00:04:04,VALID,1005.43,VALID,0,VALID,95.9255,VALID,0,VALID,22.6915,VALID,10,VALID,0.437891,
2008-09-17, 00:05:04,VALID,1005.41,VALID,0,VALID,95.9637,VALID,0,VALID,22.7711,VALID,10,VALID,0.396875,
2008-09-17, 00:06:04,VALID,1005.43,VALID,0,VALID,95.9713,VALID,0,VALID,22.7694,VALID,10,VALID,0.481641,
2008-09-17, 00:07:04,VALID,1005.42,VALID,0,VALID,95.9637,VALID,0,VALID,22.81,VALID,10,VALID,0.417188,
2008-09-17, 00:08:04,VALID,1005.42,VALID,0,VALID,95.9179,VALID,0,VALID,22.81,VALID,10,VALID,0.202734,
2008-09-17, 00:09:04,VALID,1005.41,VALID,0,VALID,95.9027,VALID,0,VALID,22.7888,VALID,10,VALID,0.0988281,
2008-09-17, 00:10:04,VALID,1005.43,VALID,0,VALID,95.8493,VALID,0,VALID,22.7694,VALID,10,VALID,0,
2008-09-17, 00:11:04,VALID,1005.38,VALID,0,VALID,95.8187,VALID,0,VALID,22.7694,VALID,10,VALID,0,
2008-09-17, 00:12:04,VALID,1005.41,VALID,0,VALID,95.8111,VALID,0,VALID,22.7305,VALID,10,VALID,0,
2008-09-17, 00:13:04,VALID,1005.39,VALID,0,VALID,95.8035,VALID,0,VALID,22.7305,VALID,10,VALID,0,
2008-09-17, 00:14:04,VALID,1005.4,VALID,0,VALID,95.8416,VALID,0,VALID,22.7711,VALID,10,VALID,0.157813,
2008-09-17, 00:15:04,VALID,1005.41,VALID,0,VALID,95.9255,VALID,0,VALID,22.81,VALID,10,VALID,0.00820312,
2008-09-17, 00:16:04,VALID,1005.38,VALID,0,VALID,95.9255,VALID,0,VALID,22.7888,VALID,10,VALID,0,
2008-09-17, 00:17:04,VALID,1005.35,VALID,0,VALID,95.9332,VALID,0,VALID,22.8083,VALID,10,VALID,0.325391,
2008-09-17, 00:18:04,VALID,1005.37,VALID,0,VALID,95.9561,VALID,0,VALID,22.8489,VALID,10,VALID,0.395703,
2008-09-17, 00:19:04,VALID,1005.35,VALID,0,VALID,95.9561,VALID,0,VALID,22.8472,VALID,10,VALID,0.0839844,
2008-09-17, 00:20:04,VALID,1005.35,VALID,0,VALID,95.9408,VALID,0,VALID,22.8472,VALID,10,VALID,0,
2008-09-17, 00:21:04,VALID,1005.33,VALID,0,VALID,95.8798,VALID,0,VALID,22.8489,VALID,10,VALID,0.0808594,
2008-09-17, 00:22:04,VALID,1005.36,VALID,0,VALID,95.8187,VALID,0,VALID,22.7871,VALID,10,VALID,0.423438,
2008-09-17, 00:23:04,VALID,1005.34,VALID,0,VALID,95.7653,VALID,0,VALID,22.7906,VALID,10,VALID,0.341797,
2008-09-17, 00:24:04,VALID,1005.32,VALID,0,VALID,95.7196,VALID,0,VALID,22.7305,VALID,10,VALID,0.389844,
2008-09-17, 00:25:04,VALID,1005.36,VALID,0,VALID,95.7501,VALID,0,VALID,22.7127,VALID,10,VALID,0.380469,
2008-09-17, 00:26:04,VALID,1005.34,VALID,0,VALID,95.7501,VALID,0,VALID,22.6721,VALID,10,VALID,0.315625,
2008-09-17, 00:27:04,VALID,1005.33,VALID,0,VALID,95.7653,VALID,0,VALID,22.6933,VALID,10,VALID,0.387891,
2008-09-17, 00:28:04,VALID,1005.32,VALID,0,VALID,95.7272,VALID,0,VALID,22.612,VALID,10,VALID,0.295312,
2008-09-17, 00:29:04,VALID,1005.33,VALID,0,VALID,95.7196,VALID,0,VALID,22.6137,VALID,10,VALID,0.132422,
2008-09-17, 00:30:04,VALID,1005.36,VALID,0,VALID,95.773,VALID,0,VALID,22.5942,VALID,10,VALID,0.0328125,
2008-09-17, 00:31:04,VALID,1005.34,VALID,0,VALID,95.8493,VALID,0,VALID,22.6349,VALID,10,VALID,0.155469,
2008-09-17, 00:32:04,VALID,1005.36,VALID,0,VALID,95.8874,VALID,0,VALID,22.6543,VALID,10,VALID,0.0242187,
2008-09-17, 00:33:04,VALID,1005.33,VALID,0,VALID,95.9942,VALID,0,VALID,22.7305,VALID,38,VALID,0.366406,
2008-09-17, 00:34:04,VALID,1005.32,VALID,0,VALID,96.0247,VALID,0,VALID,22.7888,VALID,53,VALID,0.353125,
2008-09-17, 00:35:04,VALID,1005.31,VALID,0,VALID,96.0323,VALID,0,VALID,22.8278,VALID,61,VALID,0.345703,
2008-09-17, 00:36:04,VALID,1005.32,VALID,0,VALID,96.0629,VALID,0,VALID,22.8861,VALID,62,VALID,0.369531,
2008-09-17, 00:37:04,VALID,1005.32,VALID,0,VALID,96.0552,VALID,0.100563,VALID,22.9056,VALID,62,VALID,0.183594,
2008-09-17, 00:38:04,VALID,1005.3,VALID,0,VALID,96.0323,VALID,0,VALID,22.9056,VALID,62,VALID,0.226172,
2008-09-17, 00:39:04,VALID,1005.33,VALID,0,VALID,96.0095,VALID,0,VALID,22.9056,VALID,62,VALID,0.304297,
2008-09-17, 00:40:04,VALID,1005.32,VALID,0,VALID,95.9713,VALID,0,VALID,22.8861,VALID,62,VALID,0.192188,
2008-09-17, 00:41:04,VALID,1005.34,VALID,0,VALID,95.9255,VALID,0,VALID,22.9073,VALID,62,VALID,0.150781,
2008-09-17, 00:42:04,VALID,1005.31,VALID,0,VALID,95.8721,VALID,0,VALID,22.8667,VALID,62,VALID,0.0519531,
2008-09-17, 00:43:04,VALID,1005.32,VALID,0,VALID,95.8798,VALID,0,VALID,22.8667,VALID,62,VALID,0.028125,
2008-09-17, 00:44:04,VALID,1005.27,VALID,0,VALID,95.9408,VALID,0.100563,VALID,22.8455,VALID,62,VALID,0,
2008-09-17, 00:45:04,VALID,1005.25,VALID,0,VALID,95.9255,VALID,0,VALID,22.8861,VALID,62,VALID,0.177344,
2008-09-17, 00:46:04,VALID,1005.25,VALID,0,VALID,95.834,VALID,0,VALID,22.8472,VALID,62,VALID,0.153516,
2008-09-17, 00:47:04,VALID,1005.21,VALID,0,VALID,95.7882,VALID,0,VALID,22.8083,VALID,62,VALID,0.245312,
2008-09-17, 00:48:04,VALID,1005.19,VALID,0,VALID,95.7348,VALID,0,VALID,22.7906,VALID,62,VALID,0.294531,
2008-09-17, 00:49:04,VALID,1005.17,VALID,0,VALID,95.7348,VALID,0,VALID,22.7305,VALID,40,VALID,0.459766,
2008-09-17, 00:50:04,VALID,1005.16,VALID,0,VALID,95.8035,VALID,0,VALID,22.711,VALID,39,VALID,0.441016,
2008-09-17, 00:51:04,VALID,1005.17,VALID,0,VALID,95.8264,VALID,0,VALID,22.7305,VALID,39,VALID,0.364062,
2008-09-17, 00:52:04,VALID,1005.11,VALID,0,VALID,95.7959,VALID,0,VALID,22.7127,VALID,39,VALID,0.270703,
2008-09-17, 00:53:04,VALID,1005.11,VALID,0,VALID,95.7959,VALID,0,VALID,22.6721,VALID,39,VALID,0.152734,
2008-09-17, 00:54:04,VALID,1005.07,VALID,0,VALID,95.7501,VALID,0,VALID,22.6332,VALID,39,VALID,0.226563,
2008-09-17, 00:55:04,VALID,1005.06,VALID,0,VALID,95.7424,VALID,0,VALID,22.6137,VALID,39,VALID,0.332031,
2008-09-17, 00:56:04,VALID,1005.04,VALID,0,VALID,95.7424,VALID,0,VALID,22.6154,VALID,39,VALID,0.354297,
2008-09-17, 00:57:04,VALID,1004.99,VALID,0,VALID,95.7424,VALID,0,VALID,22.5748,VALID,39,VALID,0.480469,
2008-09-17, 00:58:04,VALID,1004.95,VALID,0,VALID,95.8111,VALID,0,VALID,22.5748,VALID,39,VALID,0.407422,
2008-09-17, 00:59:04,VALID,1004.91,VALID,0,VALID,95.9637,VALID,0,VALID,22.6332,VALID,39,VALID,0.737109,
2008-09-17, 01:00:04,VALID,1004.87,VALID,0,VALID,96.0629,VALID,0,VALID,22.7888,VALID,38,VALID,0.776563,
2008-09-17, 01:01:04,VALID,1004.83,VALID,0,VALID,96.1086,VALID,0,VALID,22.8278,VALID,38,VALID,0.645703,
2008-09-17, 01:02:04,VALID,1004.81,VALID,0,VALID,96.101,VALID,0,VALID,22.8472,VALID,39,VALID,0.687109,
2008-09-17, 01:03:04,VALID,1004.8,VALID,0,VALID,96.0857,VALID,0,VALID,22.8667,VALID,39,VALID,0.679297,
2008-09-17, 01:04:04,VALID,1004.79,VALID,0,VALID,96.0629,VALID,0,VALID,22.8667,VALID,39,VALID,0.526563,
2008-09-17, 01:05:04,VALID,1004.76,VALID,0,VALID,96.04,VALID,0,VALID,22.8667,VALID,39,VALID,0.539063,
2008-09-17, 01:06:04,VALID,1004.75,VALID,0,VALID,95.9866,VALID,0,VALID,22.8472,VALID,39,VALID,0.605469,
2008-09-17, 01:07:04,VALID,1004.72,VALID,0,VALID,95.8721,VALID,0,VALID,22.8278,VALID,39,VALID,0.527344,
2008-09-17, 01:08:04,VALID,1004.73,VALID,0,VALID,95.7119,VALID,0,VALID,22.7694,VALID,39,VALID,0.538672,
2008-09-17, 01:09:04,VALID,1004.72,VALID,0,VALID,95.6356,VALID,0,VALID,22.6915,VALID,39,VALID,0.532031,
2008-09-17, 01:10:04,VALID,1004.72,VALID,0,VALID,95.6433,VALID,0,VALID,22.6526,VALID,39,VALID,0.460938,
2008-09-17, 01:11:04,VALID,1004.71,VALID,0,VALID,95.7119,VALID,0,VALID,22.6332,VALID,39,VALID,0.283203,
2008-09-17, 01:12:04,VALID,1004.72,VALID,0,VALID,95.9179,VALID,0,VALID,22.6721,VALID,29,VALID,0.347656,
2008-09-17, 01:13:04,VALID,1004.72,VALID,0,VALID,96.0095,VALID,0,VALID,22.7305,VALID,26,VALID,0.461719,
2008-09-17, 01:14:04,VALID,1004.72,VALID,0,VALID,96.0095,VALID,0,VALID,22.7694,VALID,17,VALID,0.535156,
2008-09-17, 01:15:04,VALID,1004.7,VALID,0,VALID,95.8721,VALID,0,VALID,22.7305,VALID,16,VALID,0.50625,
2008-09-17, 01:16:04,VALID,1004.71,VALID,0,VALID,95.8721,VALID,0.100563,VALID,22.7305,VALID,16,VALID,0.335938,
2008-09-17, 01:17:04,VALID,1004.7,VALID,0,VALID,95.9332,VALID,0,VALID,22.6898,VALID,16,VALID,0.423828,
2008-09-17, 01:18:04,VALID,1004.68,VALID,0,VALID,95.9408,VALID,0,VALID,22.7516,VALID,16,VALID,0.425781,
2008-09-17, 01:19:04,VALID,1004.64,VALID,0,VALID,95.8874,VALID,0,VALID,22.7305,VALID,16,VALID,0.506641,
2008-09-17, 01:20:04,VALID,1004.69,VALID,0,VALID,95.8721,VALID,0.100563,VALID,22.711,VALID,16,VALID,0.424219,
2008-09-17, 01:21:04,VALID,1004.67,VALID,0,VALID,95.8493,VALID,0,VALID,22.6915,VALID,16,VALID,0.414063,
2008-09-17, 01:22:04,VALID,1004.65,VALID,0,VALID,95.8187,VALID,0,VALID,22.6526,VALID,16,VALID,0.389453,
2008-09-17, 01:23:04,VALID,1004.67,VALID,0,VALID,95.8493,VALID,0,VALID,22.6738,VALID,16,VALID,0.410547,
2008-09-17, 01:24:04,VALID,1004.67,VALID,0,VALID,95.9255,VALID,0,VALID,22.6721,VALID,16,VALID,0.491406,
2008-09-17, 01:25:04,VALID,1004.7,VALID,0,VALID,95.9637,VALID,0,VALID,22.6704,VALID,16,VALID,0.282031,
2008-09-17, 01:26:04,VALID,1004.68,VALID,0,VALID,95.9713,VALID,0,VALID,22.6915,VALID,16,VALID,0.275781,
2008-09-17, 01:27:04,VALID,1004.64,VALID,0,VALID,95.9255,VALID,0,VALID,22.6704,VALID,16,VALID,0.195313,
2008-09-17, 01:28:04,VALID,1004.65,VALID,0,VALID,95.9484,VALID,0,VALID,22.6915,VALID,16,VALID,0.147266,
2008-09-17, 01:29:04,VALID,1004.63,VALID,0,VALID,95.9789,VALID,0,VALID,22.711,VALID,16,VALID,0,
2008-09-17, 01:30:04,VALID,1004.61,VALID,0,VALID,95.9179,VALID,0,VALID,22.711,VALID,16,VALID,0,
2008-09-17, 01:31:04,VALID,1004.59,VALID,0,VALID,95.8874,VALID,0,VALID,22.6721,VALID,16,VALID,0,
2008-09-17, 01:32:04,VALID,1004.59,VALID,0,VALID,95.8874,VALID,0,VALID,22.6915,VALID,16,VALID,0,
2008-09-17, 01:33:04,VALID,1004.58,VALID,0,VALID,95.9027,VALID,0.100563,VALID,22.6721,VALID,16,VALID,0,
2008-09-17, 01:34:04,VALID,1004.55,VALID,0,VALID,95.9103,VALID,0.100563,VALID,22.6721,VALID,16,VALID,0,
2008-09-17, 01:35:04,VALID,1004.56,VALID,0,VALID,95.9637,VALID,0,VALID,22.711,VALID,16,VALID,0,
2008-09-17, 01:36:04,VALID,1004.54,VALID,0,VALID,95.9789,VALID,0,VALID,22.7499,VALID,16,VALID,0,
2008-09-17, 01:37:04,VALID,1004.55,VALID,0,VALID,95.9713,VALID,0,VALID,22.7499,VALID,16,VALID,0,
2008-09-17, 01:38:04,VALID,1004.53,VALID,0,VALID,95.9484,VALID,0,VALID,22.7305,VALID,16,VALID,0,
2008-09-17, 01:39:04,VALID,1004.51,VALID,0,VALID,95.9484,VALID,0,VALID,22.7305,VALID,16,VALID,0,
2008-09-17, 01:40:04,VALID,1004.5,VALID,0,VALID,95.9637,VALID,0,VALID,22.7287,VALID,16,VALID,0,
2008-09-17, 01:41:04,VALID,1004.5,VALID,0,VALID,95.9866,VALID,0.100563,VALID,22.7499,VALID,16,VALID,0,
2008-09-17, 01:42:04,VALID,1004.51,VALID,0,VALID,96.0018,VALID,0,VALID,22.7888,VALID,16,VALID,0,
2008-09-17, 01:43:04,VALID,1004.56,VALID,0,VALID,96.0018,VALID,0,VALID,22.7694,VALID,16,VALID,0.00546875,
2008-09-17, 01:44:04,VALID,1004.53,VALID,0,VALID,95.9561,VALID,0,VALID,22.7694,VALID,16,VALID,0.166016,
2008-09-17, 01:45:04,VALID,1004.54,VALID,0,VALID,95.9637,VALID,0,VALID,22.7694,VALID,23,VALID,0.338672,
2008-09-17, 01:46:04,VALID,1004.56,VALID,0,VALID,95.9789,VALID,0,VALID,22.7888,VALID,51,VALID,0.435937,
2008-09-17, 01:47:04,VALID,1004.57,VALID,0,VALID,96.0095,VALID,0,VALID,22.8472,VALID,61,VALID,0.500781,
2008-09-17, 01:48:04,VALID,1004.56,VALID,0,VALID,96.0476,VALID,0,VALID,22.9056,VALID,70,VALID,0.713281,
2008-09-17, 01:49:04,VALID,1004.59,VALID,0,VALID,96.0705,VALID,0,VALID,22.9445,VALID,73,VALID,0.403125,
2008-09-17, 01:50:04,VALID,1004.56,VALID,0,VALID,96.0476,VALID,0,VALID,22.9445,VALID,73,VALID,0.333594,
2008-09-17, 01:51:04,VALID,1004.56,VALID,0,VALID,96.0171,VALID,0,VALID,22.9251,VALID,73,VALID,0.0347656,
2008-09-17, 01:52:04,VALID,1004.58,VALID,0,VALID,95.9561,VALID,0,VALID,22.9056,VALID,73,VALID,0,
2008-09-17, 01:53:04,VALID,1004.58,VALID,0,VALID,95.834,VALID,0,VALID,22.8667,VALID,73,VALID,0.0183594,
2008-09-17, 01:54:04,VALID,1004.56,VALID,0,VALID,95.8264,VALID,0,VALID,22.8472,VALID,73,VALID,0,
2008-09-17, 01:55:04,VALID,1004.54,VALID,0,VALID,95.7882,VALID,0,VALID,22.8295,VALID,73,VALID,0,
2008-09-17, 01:56:04,VALID,1004.54,VALID,0,VALID,95.8187,VALID,0,VALID,22.8083,VALID,73,VALID,0.134766,
2008-09-17, 01:57:04,VALID,1004.54,VALID,0,VALID,95.7959,VALID,0,VALID,22.8083,VALID,73,VALID,0.0878906,
2008-09-17, 01:58:04,VALID,1004.55,VALID,0,VALID,95.8035,VALID,0,VALID,22.7694,VALID,73,VALID,0,
2008-09-17, 01:59:04,VALID,1004.51,VALID,0,VALID,95.8035,VALID,0,VALID,22.7694,VALID,73,VALID,0,
2008-09-17, 02:00:04,VALID,1004.5,VALID,0,VALID,95.7959,VALID,0,VALID,22.7499,VALID,73,VALID,0.183984,
2008-09-17, 02:01:04,VALID,1004.49,VALID,0,VALID,95.6585,VALID,0,VALID,22.6915,VALID,73,VALID,0.232812,
2008-09-17, 02:02:04,VALID,1004.46,VALID,0,VALID,95.628,VALID,0,VALID,22.6332,VALID,73,VALID,0.170312,
2008-09-17, 02:03:04,VALID,1004.45,VALID,0,VALID,95.6585,VALID,0.100563,VALID,22.6137,VALID,73,VALID,0,
2008-09-17, 02:04:04,VALID,1004.45,VALID,0,VALID,95.7043,VALID,0,VALID,22.5731,VALID,73,VALID,0.00351562,
2008-09-17, 02:05:04,VALID,1004.44,VALID,0,VALID,95.6967,VALID,0,VALID,22.5748,VALID,73,VALID,0,
2008-09-17, 02:06:04,VALID,1004.41,VALID,0,VALID,95.8111,VALID,0,VALID,22.5942,VALID,73,VALID,0,
2008-09-17, 02:07:04,VALID,1004.39,VALID,0,VALID,95.9484,VALID,0,VALID,22.6332,VALID,73,VALID,0.334766,
2008-09-17, 02:08:04,VALID,1004.38,VALID,0,VALID,95.8187,VALID,0,VALID,22.6332,VALID,73,VALID,0.334375,
2008-09-17, 02:09:04,VALID,1004.39,VALID,0,VALID,95.7272,VALID,0,VALID,22.5748,VALID,73,VALID,0.2875,
2008-09-17, 02:10:04,VALID,1004.36,VALID,0,VALID,95.6585,VALID,0.100563,VALID,22.5359,VALID,73,VALID,0.360938,
2008-09-17, 02:11:04,VALID,1004.36,VALID,0,VALID,95.6585,VALID,0,VALID,22.4758,VALID,73,VALID,0.191016,
2008-09-17, 02:12:04,VALID,1004.31,VALID,0,VALID,95.6967,VALID,0,VALID,22.458,VALID,73,VALID,0.266797,
2008-09-17, 02:13:04,VALID,1004.3,VALID,0,VALID,95.834,VALID,0,VALID,22.497,VALID,73,VALID,0.256641,
2008-09-17, 02:14:04,VALID,1004.29,VALID,0,VALID,95.9179,VALID,0,VALID,22.4953,VALID,73,VALID,0.232812,
2008-09-17, 02:15:04,VALID,1004.28,VALID,0,VALID,95.8493,VALID,0,VALID,22.497,VALID,73,VALID,0.164453,
2008-09-17, 02:16:04,VALID,1004.3,VALID,0,VALID,95.8264,VALID,0,VALID,22.4987,VALID,73,VALID,0,
2008-09-17, 02:17:04,VALID,1004.26,VALID,0,VALID,95.8569,VALID,0,VALID,22.4775,VALID,73,VALID,0,
2008-09-17, 02:18:04,VALID,1004.27,VALID,0,VALID,95.8645,VALID,0,VALID,22.4775,VALID,73,VALID,0,
2008-09-17, 02:19:04,VALID,1004.25,VALID,0,VALID,95.9255,VALID,0,VALID,22.497,VALID,73,VALID,0.10625,
2008-09-17, 02:20:04,VALID,1004.23,VALID,0,VALID,96.0781,VALID,0,VALID,22.5748,VALID,70,VALID,0.420312,
2008-09-17, 02:21:04,VALID,1004.22,VALID,0,VALID,96.1086,VALID,0,VALID,22.6526,VALID,67,VALID,0.199219,
2008-09-17, 02:22:04,VALID,1004.18,VALID,0,VALID,96.0781,VALID,0,VALID,22.6526,VALID,67,VALID,0.203125,
2008-09-17, 02:23:04,VALID,1004.18,VALID,0,VALID,96.0552,VALID,0,VALID,22.6526,VALID,67,VALID,0.229297,
2008-09-17, 02:24:04,VALID,1004.15,VALID,0,VALID,96.0171,VALID,0,VALID,22.6526,VALID,59,VALID,0.422266,
2008-09-17, 02:25:04,VALID,1004.18,VALID,0,VALID,95.9789,VALID,0,VALID,22.6315,VALID,31,VALID,0.383203,
2008-09-17, 02:26:04,VALID,1004.14,VALID,0,VALID,95.8798,VALID,0,VALID,22.6349,VALID,27,VALID,0.464063,
2008-09-17, 02:27:04,VALID,1004.14,VALID,0,VALID,95.8874,VALID,0,VALID,22.5925,VALID,26,VALID,0.419531,
2008-09-17, 02:28:04,VALID,1004.17,VALID,0,VALID,95.8645,VALID,0,VALID,22.5748,VALID,26,VALID,0.419531,
2008-09-17, 02:29:04,VALID,1004.17,VALID,0,VALID,95.8416,VALID,0,VALID,22.5553,VALID,26,VALID,0.348437,
2008-09-17, 02:30:04,VALID,1004.16,VALID,0,VALID,95.8416,VALID,0,VALID,22.557,VALID,26,VALID,0.312891,
2008-09-17, 02:31:04,VALID,1004.17,VALID,0,VALID,95.8569,VALID,0,VALID,22.5164,VALID,26,VALID,0.306641,
2008-09-17, 02:32:04,VALID,1004.15,VALID,0,VALID,95.9255,VALID,0,VALID,22.5164,VALID,26,VALID,0.280859,
2008-09-17, 02:33:04,VALID,1004.16,VALID,0,VALID,95.9561,VALID,0.100563,VALID,22.5359,VALID,26,VALID,0.332422,
2008-09-17, 02:34:04,VALID,1004.16,VALID,0,VALID,95.9255,VALID,0,VALID,22.5164,VALID,26,VALID,0.255859,
2008-09-17, 02:35:04,VALID,1004.13,VALID,0,VALID,95.9179,VALID,0,VALID,22.5164,VALID,26,VALID,0.121875,
2008-09-17, 02:36:04,VALID,1004.12,VALID,0,VALID,95.9637,VALID,0.100563,VALID,22.497,VALID,26,VALID,0.317969,
2008-09-17, 02:37:04,VALID,1004.11,VALID,0,VALID,95.9408,VALID,0,VALID,22.5164,VALID,26,VALID,0.3375,
2008-09-17, 02:38:04,VALID,1004.11,VALID,0,VALID,95.9179,VALID,0,VALID,22.497,VALID,26,VALID,0.272656,
2008-09-17, 02:39:04,VALID,1004.1,VALID,0,VALID,95.9179,VALID,0,VALID,22.4775,VALID,26,VALID,0.434766,
2008-09-17, 02:40:04,VALID,1004.07,VALID,0,VALID,95.9408,VALID,0,VALID,22.497,VALID,26,VALID,0.475781,
2008-09-17, 02:41:04,VALID,1004.08,VALID,0,VALID,95.9561,VALID,0,VALID,22.4775,VALID,26,VALID,0.557031,
2008-09-17, 02:42:04,VALID,1004.11,VALID,0,VALID,95.9332,VALID,0,VALID,22.458,VALID,26,VALID,0.555469,
2008-09-17, 02:43:04,VALID,1004.12,VALID,0,VALID,95.8645,VALID,0,VALID,22.3997,VALID,26,VALID,0.542578,
2008-09-17, 02:44:04,VALID,1004.12,VALID,0,VALID,95.8493,VALID,0.100563,VALID,22.3802,VALID,26,VALID,0.446484,
2008-09-17, 02:45:04,VALID,1004.12,VALID,0,VALID,95.8798,VALID,0,VALID,22.3608,VALID,26,VALID,0.401172,
2008-09-17, 02:46:04,VALID,1004.12,VALID,0,VALID,95.9255,VALID,0,VALID,22.3608,VALID,26,VALID,0.250781,
2008-09-17, 02:47:04,VALID,1004.09,VALID,0,VALID,95.9866,VALID,0,VALID,22.3802,VALID,26,VALID,0.228906,
2008-09-17, 02:48:04,VALID,1004.07,VALID,0,VALID,96.0705,VALID,0,VALID,22.4386,VALID,26,VALID,0.212109,
2008-09-17, 02:49:04,VALID,1004.04,VALID,0,VALID,96.101,VALID,0,VALID,22.5164,VALID,26,VALID,0.273828,
2008-09-17, 02:50:04,VALID,1004.04,VALID,0,VALID,96.1239,VALID,0,VALID,22.5553,VALID,26,VALID,0,
2008-09-17, 02:51:04,VALID,1004.02,VALID,0,VALID,96.1239,VALID,0,VALID,22.6154,VALID,26,VALID,0,
2008-09-17, 02:52:04,VALID,1004.03,VALID,0,VALID,96.1239,VALID,0,VALID,22.5942,VALID,26,VALID,0,
2008-09-17, 02:53:04,VALID,1004.01,VALID,0,VALID,96.101,VALID,0,VALID,22.5553,VALID,26,VALID,0.146094,
2008-09-17, 02:54:04,VALID,1004.05,VALID,0,VALID,96.0095,VALID,0,VALID,22.5164,VALID,26,VALID,0.307813,
2008-09-17, 02:55:04,VALID,1004.05,VALID,0,VALID,95.8416,VALID,0,VALID,22.4386,VALID,26,VALID,0.485938,
2008-09-17, 02:56:04,VALID,1004.06,VALID,0,VALID,95.8645,VALID,0,VALID,22.4191,VALID,26,VALID,0.561719,
2008-09-17, 02:57:04,VALID,1004.08,VALID,0,VALID,95.8721,VALID,0,VALID,22.3802,VALID,26,VALID,0.419922,
2008-09-17, 02:58:04,VALID,1004.11,VALID,0,VALID,95.8645,VALID,0,VALID,22.3413,VALID,22,VALID,0.458594,
2008-09-17, 02:59:04,VALID,1004.12,VALID,0,VALID,95.8798,VALID,0,VALID,22.3218,VALID,22,VALID,0.195703,
2008-09-17, 03:00:04,VALID,1004.11,VALID,0,VALID,95.9179,VALID,0,VALID,22.3413,VALID,22,VALID,0.336719,
2008-09-17, 03:01:04,VALID,1004.1,VALID,0,VALID,95.9255,VALID,0,VALID,22.3024,VALID,22,VALID,0.00117188,
2008-09-17, 03:02:04,VALID,1004.08,VALID,0,VALID,95.9484,VALID,0,VALID,22.3024,VALID,22,VALID,0.373828,
2008-09-17, 03:03:04,VALID,1004.08,VALID,0,VALID,96.0095,VALID,0,VALID,22.3413,VALID,22,VALID,0.449219,
2008-09-17, 03:04:04,VALID,1004.07,VALID,0,VALID,96.0934,VALID,0,VALID,22.3802,VALID,22,VALID,0.616016,
2008-09-17, 03:05:04,VALID,1004.07,VALID,0,VALID,96.101,VALID,0.100563,VALID,22.4191,VALID,22,VALID,0.587109,
2008-09-17, 03:06:04,VALID,1004.07,VALID,0,VALID,96.1239,VALID,0,VALID,22.4386,VALID,22,VALID,0.337109,
2008-09-17, 03:07:04,VALID,1004.1,VALID,0,VALID,96.1163,VALID,0,VALID,22.4597,VALID,22,VALID,0.356641,
2008-09-17, 03:08:04,VALID,1004.07,VALID,0,VALID,96.1086,VALID,0,VALID,22.458,VALID,22,VALID,0.239063,
2008-09-17, 03:09:04,VALID,1004.08,VALID,0,VALID,96.101,VALID,0,VALID,22.4775,VALID,22,VALID,0,
2008-09-17, 03:10:04,VALID,1004.12,VALID,0,VALID,96.0857,VALID,0.100563,VALID,22.4775,VALID,26,VALID,0,
2008-09-17, 03:11:04,VALID,1004.13,VALID,0,VALID,96.0934,VALID,0,VALID,22.5164,VALID,48,VALID,0.229687,
2008-09-17, 03:12:04,VALID,1004.09,VALID,0,VALID,96.1315,VALID,0,VALID,22.5748,VALID,65,VALID,0.248047,
2008-09-17, 03:13:04,VALID,1004.09,VALID,0,VALID,96.1315,VALID,0,VALID,22.5942,VALID,65,VALID,0.258203,
2008-09-17, 03:14:04,VALID,1004.11,VALID,0,VALID,96.1468,VALID,0,VALID,22.6543,VALID,65,VALID,0.277734,
2008-09-17, 03:15:04,VALID,1004.1,VALID,0,VALID,96.1392,VALID,0,VALID,22.6543,VALID,64,VALID,0.103516,
2008-09-17, 03:16:04,VALID,1004.11,VALID,0,VALID,96.1315,VALID,0,VALID,22.6526,VALID,64,VALID,0.396484,
2008-09-17, 03:17:04,VALID,1004.13,VALID,0,VALID,96.1163,VALID,0,VALID,22.6721,VALID,64,VALID,0.196484,
2008-09-17, 03:18:04,VALID,1004.13,VALID,0,VALID,96.1086,VALID,0,VALID,22.6738,VALID,64,VALID,0.163281,
2008-09-17, 03:19:04,VALID,1004.09,VALID,0,VALID,96.1086,VALID,0.100563,VALID,22.6721,VALID,64,VALID,0,
2008-09-17, 03:20:04,VALID,1004.12,VALID,0,VALID,96.0857,VALID,0,VALID,22.6738,VALID,64,VALID,0,
2008-09-17, 03:21:04,VALID,1004.13,VALID,0,VALID,96.0934,VALID,0.100563,VALID,22.6721,VALID,64,VALID,0,
2008-09-17, 03:22:04,VALID,1004.18,VALID,0,VALID,96.0781,VALID,0,VALID,22.6526,VALID,64,VALID,0,
2008-09-17, 03:23:04,VALID,1004.17,VALID,0,VALID,96.0705,VALID,0,VALID,22.6738,VALID,64,VALID,0,
2008-09-17, 03:24:04,VALID,1004.17,VALID,0,VALID,96.0323,VALID,0,VALID,22.6137,VALID,64,VALID,0,
2008-09-17, 03:25:04,VALID,1004.18,VALID,0,VALID,96.04,VALID,0,VALID,22.6332,VALID,64,VALID,0,
2008-09-17, 03:26:04,VALID,1004.19,VALID,0,VALID,96.04,VALID,0,VALID,22.6526,VALID,64,VALID,0,
2008-09-17, 03:27:04,VALID,1004.21,VALID,0,VALID,96.0171,VALID,0,VALID,22.6137,VALID,64,VALID,0,
2008-09-17, 03:28:04,VALID,1004.22,VALID,0,VALID,95.9561,VALID,0,VALID,22.6154,VALID,64,VALID,0,
2008-09-17, 03:29:04,VALID,1004.2,VALID,0,VALID,95.9332,VALID,0,VALID,22.5765,VALID,64,VALID,0.205469,
2008-09-17, 03:30:04,VALID,1004.21,VALID,0,VALID,95.9484,VALID,0.100563,VALID,22.5553,VALID,64,VALID,0.224609,
2008-09-17, 03:31:04,VALID,1004.19,VALID,0,VALID,95.8798,VALID,0,VALID,22.5181,VALID,64,VALID,0.340234,
2008-09-17, 03:32:04,VALID,1004.2,VALID,0,VALID,95.8874,VALID,0,VALID,22.4775,VALID,64,VALID,0.311719,
2008-09-17, 03:33:04,VALID,1004.18,VALID,0,VALID,95.9713,VALID,0,VALID,22.458,VALID,64,VALID,0.205859,
2008-09-17, 03:34:04,VALID,1004.19,VALID,0,VALID,95.9103,VALID,0,VALID,22.4386,VALID,64,VALID,0.144922,
2008-09-17, 03:35:04,VALID,1004.18,VALID,0,VALID,95.9179,VALID,0,VALID,22.4386,VALID,64,VALID,0.198047,
2008-09-17, 03:36:04,VALID,1004.17,VALID,0,VALID,95.9103,VALID,0,VALID,22.3997,VALID,64,VALID,0.207422,
2008-09-17, 03:37:04,VALID,1004.15,VALID,0,VALID,95.9713,VALID,0,VALID,22.3997,VALID,64,VALID,0.423828,
2008-09-17, 03:38:04,VALID,1004.14,VALID,0,VALID,96.0323,VALID,0,VALID,22.398,VALID,64,VALID,0.305859,
2008-09-17, 03:39:04,VALID,1004.15,VALID,0,VALID,96.0552,VALID,0,VALID,22.4386,VALID,64,VALID,0.166406,
2008-09-17, 03:40:04,VALID,1004.17,VALID,0,VALID,96.0247,VALID,0,VALID,22.4191,VALID,64,VALID,0,
2008-09-17, 03:41:04,VALID,1004.17,VALID,0,VALID,96.0323,VALID,0,VALID,22.4191,VALID,64,VALID,0,
2008-09-17, 03:42:04,VALID,1004.15,VALID,0,VALID,96.0476,VALID,0,VALID,22.4386,VALID,64,VALID,0,
2008-09-17, 03:43:04,VALID,1004.18,VALID,0,VALID,96.0857,VALID,0.100563,VALID,22.4563,VALID,64,VALID,0,
2008-09-17, 03:44:04,VALID,1004.17,VALID,0,VALID,96.1315,VALID,0,VALID,22.4775,VALID,28,VALID,0.511719,
2008-09-17, 03:45:04,VALID,1004.15,VALID,0,VALID,96.2078,VALID,0,VALID,22.5748,VALID,356,VALID,0.367969,
2008-09-17, 03:46:04,VALID,1004.17,VALID,0,VALID,96.2307,VALID,0,VALID,22.6349,VALID,337,VALID,0.586719,
2008-09-17, 03:47:04,VALID,1004.16,VALID,0,VALID,96.2231,VALID,0,VALID,22.6721,VALID,332,VALID,0.271875,
2008-09-17, 03:48:04,VALID,1004.17,VALID,0,VALID,96.1926,VALID,0,VALID,22.6526,VALID,332,VALID,0,